Location: Endfield
(51.6667°N, 0.0667°W)
Time: 04:01:25
(UTC+00:00)

Cosmos 1633 Rocket - Pass Details

Date: 19 May 2024
Orbit: 604 x 619 km, 82.5° (Epoch: 21 June)

Event Time Altitude Azimuth Distance (km) Brightness Sun altitude
Rises 23:47:17 0° 343° (NNW) 2,907 8.0 -18.3°
Reaches altitude 10° 23:49:39 10° 335° (NNW) 1,997 6.7 -18.3°
Maximum altitude 23:53:41 36° 269° (W) 989 4.1 -18.3°
Enters shadow 23:55:15 27° 227° (SW) 1,196 4.1 -18.3°
